Regional Weather Roundup
Issued by NWS Jackson, KY

Home | Current Version | Previous Version | Text Only | Print | Product List | Glossary Off
Versions: 1 2 3 4 5 6 7 8 9 10 11 12 13 14 15 16 17 18 19 20 21 22 23 24 25 26 27 28 29 30 31 32 33 34 35 36 37 38 39 40 41 42 43 44 45 46 47 48 49 50

000
ASUS43 KJKL 050010
RWRJKL

EAST KENTUCKY HOURLY WEATHER ROUNDUP
NATIONAL WEATHER SERVICE JACKSON KY
700 PM EST WED MAR 04 2015

NOTE: "FAIR" INDICATES FEW OR NO CLOUDS BELOW 12,000 FEET WITH
NO SIGNIFICANT WEATHER AND/OR OBSTRUCTIONS TO VISIBILITY.

* THESE REPORTS ARE NOT UNDER NWS QUALITY CONTROL AND MAY NOT
  REPORT WEATHER SUCH AS PRECIPITATION AND FOG.

KYZ079-080-083-085-087-088-110-112-115-119-120-050100
...EASTERN KENTUCKY...

CITY           SKY/WX    TMP DP  RH WIND       PRES   REMARKS
JACKSON        LGT RAIN  38  36  92 VRB6      29.97R WCI  33
6HR MIN TEMP:  38; 6HR MAX TEMP:  50; 6HR PCP:  0.76;

LONDON         LGT RAIN  39  35  86 N9        29.98R WCI  33
6HR MIN TEMP:  39; 6HR MAX TEMP:  52; 6HR PCP:  0.68;

SOMERSET*      LGT RAIN  36  36 100 N8        30.01R WCI  29
MONTICELLO*    LGT SNOW  37  37 100 N13       30.05R FOG     WCI  29
6HR MIN TEMP:  38; 6HR MAX TEMP:  53; 6HR PCP:  0.59;

MIDDLESBORO*   RAIN      47  46  97 NE8       29.92R
6HR MIN TEMP:  47; 6HR MAX TEMP:  50; 6HR PCP:  0.86;

HAZARD APT*    LGT RAIN  41  41 100 CALM      29.96R
BLACK MTN*       N/A     41  41 100 N8          N/A
PIKEVILLE APT* RAIN      39  39 100 N7        29.96R WCI  34
BIG SANDY*     RAIN      39  38  98 N3        29.97R
6HR MIN TEMP:  39; 6HR MAX TEMP:  52;

MOREHEAD APT*  RAIN      34  32  93 NW8       30.06R WCI  27
$$

KYZ035-036-041-042-044-050-067-078-099-050100
...CENTRAL KENTUCKY...

CITY           SKY/WX    TMP DP  RH WIND       PRES   REMARKS
MT STERLING*   LGT RAIN  34  32  93 N7        30.05R WCI  28
FLEMING/MASON* SNOW      32  32 100 NW3       30.07R VSB 1/4
DANVILLE*      LGT RAIN  32  32 100 N15       30.06R WCI  22
RICHMOND*      CLOUDY    34  32  93 N10       30.02R WCI  26
LEXINGTON      LGT SNOW  32  30  92 N17G24    30.05R FOG     WCI  21
6HR MIN TEMP:  32; 6HR MAX TEMP:  36; 6HR PCP:  0.48;

FRANKFORT      SNOW      31  30  96 N9        30.07R VSB 1/2 WCI  23
6HR MIN TEMP:  31; 6HR MAX TEMP:  37; 6HR PCP:  0.60;

$$

KYZ091>093-OHZ055-061-077-WVZ005-015-034-035-042-050100
...SOUTHERN OHIO/WEST VIRGINIA...

CITY           SKY/WX    TMP DP  RH WIND       PRES   REMARKS
COVINGTON      LGT SNOW  29  26  89 NW14      30.09R VSB 3/4 WCI  18
COLUMBUS       LGT SNOW  30  27  86 NW10      30.05R FOG     WCI  21
DAYTON         LGT SNOW  28  24  85 NW9       30.09R VSB 1   WCI  19
WILMINGTON     LGT SNOW  29  25  85 NW13      30.07R VSB 3/4 WCI  19
HUNTINGTON     RAIN      35  34  96 N7        30.02R FOG     WCI  29
CHARLESTON     RAIN      39  36  89 VRB5      29.98R FOG
PINEVILLE*     LGT SNOW  41  41 100 MISG      29.95R
BECKLEY        RAIN      42  42 100 N13       29.91R FOG
BLUEFIELD      FOG       47  44  90 CALM      29.88S VSB 1/4
$$

VAZ002-007-008-TNZ017-027-036-066-071-050100
...SOUTHWEST VIRGINIA/EAST TENNESSEE...

CITY           SKY/WX    TMP DP  RH WIND       PRES   REMARKS
WISE*          LGT RAIN  46  46 100 N8        29.91R
JONESVILLE*    LGT RAIN  41  41 100 SW13      29.92R VSB 1/2
ABINGDON*      CLOUDY    54  51  92 E3        29.85R
BRISTOL        CLOUDY    55  50  83 N8        29.84R
KNOXVILLE      CLOUDY    60  53  77 NW10G31   29.81R
OAK RIDGE      LGT RAIN  53  51  93 NE7       29.86R
CROSSVILLE     CLOUDY    44  41  89 N12       29.91R
NASHVILLE      RAIN      35  33  92 N13       30.08R FOG     WCI  26
$$

...KEY TO REMARKS...
VSB - VISIBILITY IN MILES
WCI - WIND CHILL INDEX
HX  - HEAT INDEX

$$



USA.gov is the U.S. government's official web portal to all federal, state and local government web resources and services.